Regional Weather Roundup
Issued by NWS

Home | Current Version | Previous Version | Text Only | Print | Product List | Glossary Off
Versions: 1 2 3 4 5 6 7 8 9 10 11 12 13 14 15 16 17 18 19 20 21 22 23 24 25 26 27

000
ASUS45 KBOU 020607
RWRCO

WEATHER ROUNDUP FOR COLORADO
NATIONAL WEATHER SERVICE DENVER/BOULDER CO
1100 PM MST THU DEC 01 2016

NOTE: "FAIR" INDICATES FEW OR NO CLOUDS BELOW 12000 FEET WITH NO
SIGNIFICANT WEATHER AND/OR OBSTRUCTIONS TO VISIBILITY.

COZ001>005-013-030-031-020700-
...NORTHWEST COLORADO...

CITY           SKY/WX    TMP DP  RH WIND       PRES   REMARKS
CRAIG          MOCLDY    19  15  84 CALM      30.05R
HAYDEN         FAIR      21  16  79 CALM      30.03R
MEEKER         FLURRIES  23  21  92 SW3       30.03R
MOUNT WERNER   NOT AVBL
STEAMBOAT SPGS CLOUDY    20  19  94 CALM      30.02R
WALDEN           N/A     16  12  86 CALM      29.99R
$$

COZ006>008-011-020700-
...WEST CENTRAL VALLEYS...

CITY           SKY/WX    TMP DP  RH WIND       PRES   REMARKS
GRAND JUNCTION CLOUDY    29  22  75 CALM      30.02R
MONTROSE       FAIR      22  15  75 SE7       30.04R WCI  13
EAGLE          CLOUDY    24  18  77 CALM      30.04R
RIFLE          CLOUDY    27  22  81 CALM      30.04R
DELTA          FAIR      28  19  69 NE5       30.03  WCI  22
NUCLA          FAIR      23  16  74 E6        30.03R WCI  16
$$

COZ017>023-064>068-020700-
...SOUTHWEST COLORADO...

CITY           SKY/WX    TMP DP  RH WIND       PRES   REMARKS
DURANGO        FAIR      21  15  78 CALM      29.98R
CORTEZ         FAIR      17  13  84 E3        30.00R
PAGOSA SPRINGS FAIR      14  12  92 CALM      29.98R
TELLURIDE      MOCLDY    18  14  84 CALM      29.95S
WOLF CREEK PAS MOCLDY    10   9  92 SW6       29.97S WCI   1
$$

COZ009-010-012-014-032>034-037-058>063-020700-
...CENTRAL COLORADO...

CITY           SKY/WX    TMP DP  RH WIND       PRES   REMARKS
ASPEN          FAIR      13   9  84 SW5       29.97R WCI   5
BUENA VISTA    FAIR      15   5  65 CALM      29.97R
COPPER MTN     FAIR      14   9  79 MISG      29.90R
BERTHOUD PASS  FAIR       3  -8  60 W7        29.89S WCI  -9
COTTONWOOD PAS FAIR      19   9  63 CALM      29.94S
GUNNISON       FAIR      10   7  87 CALM      30.00R
KREMMLING      LGT SNOW  21  18  86 CALM      30.02R
LEADVILLE      MOCLDY     6   2  83 NE3       29.92R
MONARCH PASS     N/A      9   5  85 SW9       30.01R WCI  -5
SALIDA         MOCLDY    26   4  40 S6        30.05S WCI  19
SUNLIGHT       CLOUDY   N/A N/A N/A SW3       29.97S
WILKERSON PASS MOCLDY    12   5  73 SW6       29.95R WCI   3
$$

COZ069>075-020700-
...SAN LUIS VALLEY/SANGRE DE CRISTO MOUNTAINS...

CITY           SKY/WX    TMP DP  RH WIND       PRES   REMARKS
ALAMOSA        FAIR       4   1  88 W7        29.98R WCI  -8
LA VETA PASS   FAIR      16   9  73 NE15      29.94S WCI   1
SAGUACHE       MOCLDY    19  10  68 NW6       29.98S WCI  11
$$

COZ035-036-038>040-020700-
...NORTHERN COLORADO FRONT RANGE...

CITY           SKY/WX    TMP DP  RH WIND       PRES   REMARKS
DENVER INTL AP CLOUDY    26  10  50 SE9       30.01R WCI  17
DMNS CITY PARK   N/A     27  10  47 N6        30.01R WCI  21
AURORA         CLOUDY    27  11  50 S7        30.01R WCI  19
FRONT RANGE AP MOCLDY    28  12  50 SE7       30.03R WCI  21
ERIE MUNI ARPT CLOUDY    24  14  64 CALM      30.03R
BOULDER MUN AP MOCLDY    28   9  43 CALM      30.03R
CENTENNIAL     MOCLDY    28  11  48 W6        30.00R WCI  22
BROOMFIELD     CLOUDY    30  10  43 N7        30.01R WCI  23
FORT COLLINS   FAIR      27  10  50 CALM      30.05R
LONGMONT       FAIR      24  10  56 CALM      30.06R
$$

COZ041-046-047-076>085-087-088-020700-
...PIKES PEAK/PALMER DIVIDE AND SOUTHERN FOOTHILLS...

CITY           SKY/WX    TMP DP  RH WIND       PRES   REMARKS
COLO. SPRINGS  FAIR      24   4  42 E3        30.02R
A. F. ACADEMY  FAIR      15   4  64 N8        29.99S WCI   3
SCHRIEVER AFB  NOT AVBL
ELLICOTT       FAIR       1   1 100 CALM      30.01R
FALCON         FAIR      20   4  50 CALM      30.00S
FORT CARSON    FAIR      20   4  51 NW3       30.00R
LIMON          FAIR       9   5  84 N7        30.03S WCI  -2
MONUMENT HILL  MOCLDY    19   5  53 CALM      30.01R
TRINIDAD       FAIR      18   5  57 NW7       29.99S WCI   9
$$

COZ042>045-048>051-090-091-020700-
...NORTHEAST COLORADO...

CITY           SKY/WX    TMP DP  RH WIND       PRES   REMARKS
GREELEY ARPT   FAIR      17   8  67 CALM      30.06R
AKRON          MOCLDY    27  16  63 NW10      30.04R WCI  17
BURLINGTON     CLOUDY    23   9  55 W7        30.05R WCI  15
WRAY           NOT AVBL
STERLING       FAIR      23  18  80 CALM      30.05R
HOLYOKE        FAIR      19  12  73 W10       30.06R WCI   8
FORT MORGAN    FAIR      24  15  66 SW5       30.06R WCI  18
$$

COZ086-089-092>099-020700-
...SOUTHEAST COLORADO...

CITY           SKY/WX    TMP DP  RH WIND       PRES   REMARKS
PUEBLO         FAIR      18  10  71 NW3       30.02S
LA JUNTA       FAIR      21  12  68 NE6       30.04R WCI  13
LAMAR          FAIR      18   9  68 CALM      30.04R
SPRINGFIELD      N/A     18   6  59 SW3       30.03R
$$




USA.gov is the U.S. government's official web portal to all federal, state and local government web resources and services.